CW8198 Weather Reports


time (UTC)temp
F
wind
direction
speed
knots
gust
knots
rain 1hr
in
rain 24hr
in
rain mn
in
humidity
%
barometer
mb
20260505171509 57 51 0.9 6.1 0.00 0.06 0.03 47 1013.8
20260505171008 57 254 1.7 6.1 0.00 0.06 0.03 55 1013.7
20260505170508 57 286 1.7 6.1 0.00 0.06 0.03 53 1013.9
20260505170008 56 289 1.7 6.1 0.00 0.06 0.03 50 1013.9
20260505165507 56 286 3.5 6.1 0.00 0.06 0.03 52 1013.9
20260505165007 56 317 1.7 5.2 0.00 0.06 0.03 55 1013.9
20260505164506 56 325 2.6 5.2 0.00 0.06 0.03 53 1014.1
20260505163506 56 16 1.7 5.2 0.00 0.06 0.03 56 1014.0
20260505163005 55 281 1.7 7.0 0.00 0.06 0.03 60 1013.9
20260505162506 54 9 0.9 7.8 0.00 0.06 0.03 60 1013.7
20260505162005 54 338 1.7 7.8 0.00 0.06 0.03 62 1013.6
20260505161005 53 309 1.7 7.0 0.00 0.06 0.03 63 1013.6
20260505160503 53 279 1.7 7.0 0.00 0.06 0.03 65 1013.5
20260505153003 50 323 1.7 7.0 0.00 0.06 0.03 71 1013.4
20260505152002 49 247 1.7 7.0 0.00 0.06 0.03 72 1013.3
20260505151502 49 334 2.6 7.8 0.00 0.06 0.03 72 1013.3
20260505151001 49 334 2.6 7.8 0.00 0.06 0.03 74 1013.4
20260505150501 49 309 2.6 7.0 0.00 0.06 0.03 74 1013.1
20260505140459 46 282 1.7 5.2 0.00 0.06 0.03 83 1013.0
20260505124948 46 19 0.9 2.6 0.00 0.06 0.03 88 1011.8
20260505124448 45 334 0.9 2.6 0.00 0.06 0.03 89 1011.7
20260505122947 44 325 0.9 1.7 0.00 0.06 0.03 88 1011.4
20260505122447 44 275 0.0 1.7 0.00 0.06 0.03 88 1011.4
20260505121946 44 255 0.9 1.7 0.00 0.06 0.03 88 1011.2
20260505121446 44 338 0.0 1.7 0.00 0.06 0.03 88 1011.1
20260505120944 44 319 0.9 1.7 0.00 0.06 0.03 88 1010.9
20260505115944 44 229 0.9 1.7 0.00 0.06 0.03 88 1010.8
20260505115444 44 9 0.0 0.9 0.00 0.06 0.03 87 1010.6
20260505114442 44 319 0.9 1.7 0.00 0.06 0.03 87 1010.4
20260505113943 44 26 0.9 1.7 0.00 0.06 0.03 87 1010.3
20260505113442 44 9 0.0 0.9 0.00 0.06 0.03 87 1010.5
20260505112944 44 34 0.0 0.9 0.00 0.06 0.03 87 1010.4
20260505112443 44 51 0.0 0.9 0.00 0.06 0.03 87 1010.4
20260505111442 44 146 0.0 0.9 0.00 0.06 0.03 87 1010.5
20260505110941 44 9 0.0 0.9 0.00 0.06 0.03 87 1010.5
20260505110441 44 137 0.0 0.9 0.00 0.06 0.03 87 1010.6
20260505101923 45 9 0.9 1.7 0.00 0.06 0.03 88 1010.9
20260505101424 45 330 0.9 2.6 0.00 0.06 0.03 88 1010.8
20260505100422 45 34 0.9 1.7 0.00 0.06 0.03 88 1010.8
20260505095917 45 325 0.9 1.7 0.00 0.06 0.03 88 1010.8
20260505095416 45 291 0.0 1.7 0.00 0.06 0.03 88 1010.7
20260505094915 45 9 0.9 1.7 0.00 0.06 0.03 88 1010.5
20260505093916 45 265 0.9 1.7 0.00 0.06 0.03 88 1010.6
20260505093414 45 265 0.0 2.6 0.00 0.06 0.03 88 1010.4
20260505092913 45 309 0.9 3.5 0.00 0.06 0.03 88 1010.3
20260505092413 45 16 1.7 3.5 0.00 0.06 0.03 88 1010.2
20260505091914 45 346 1.7 3.5 0.00 0.06 0.03 88 1009.9
20260505085912 46 334 0.9 2.6 0.00 0.06 0.03 88 1009.8
20260505085414 46 282 0.9 2.6 0.00 0.06 0.03 88 1009.7
20260505084912 46 344 0.9 2.6 0.00 0.06 0.03 87 1009.8
20260505084412 46 337 1.7 2.6 0.00 0.06 0.03 87 1009.8
20260505083911 46 348 0.9 2.6 0.00 0.06 0.03 87 1009.7
20260505083410 47 282 0.9 1.7 0.00 0.06 0.03 87 1009.7
20260505082911 47 298 0.9 1.7 0.00 0.06 0.03 87 1009.5
20260505082410 47 319 0.9 2.6 0.00 0.06 0.03 87 1009.4
20260505081910 47 9 0.0 2.6 0.00 0.06 0.03 87 1009.3
20260505081409 47 309 0.9 1.7 0.00 0.06 0.03 87 1009.3
20260505080909 47 309 0.9 0.9 0.00 0.06 0.03 87 1009.1
20260505080411 47 325 0.0 1.7 0.00 0.06 0.03 87 1009.1
20260505075908 47 291 0.0 1.7 0.00 0.06 0.03 87 1008.9
20260505075408 47 338 0.9 1.7 0.00 0.06 0.03 87 1008.7
20260505074909 47 9 0.9 1.7 0.01 0.06 0.03 87 1008.9
20260505074407 47 342 0.9 1.7 0.01 0.06 0.03 87 1008.9
20260505073406 47 9 0.9 1.7 0.01 0.06 0.03 87 1009.0
20260505072908 48 9 0.9 1.7 0.01 0.06 0.03 86 1009.0
20260505072408 48 319 0.0 0.9 0.01 0.06 0.03 86 1009.0
20260505071906 48 221 0.0 1.7 0.01 0.06 0.03 86 1009.0
20260505071405 48 178 0.9 1.7 0.01 0.06 0.03 86 1008.9
20260505070906 48 238 0.9 2.6 0.01 0.06 0.03 86 1008.9
20260505065404 48 309 0.9 1.7 0.02 0.06 0.03 85 1008.5
20260505064903 48 9 0.9 1.7 0.01 0.05 0.02 85 1008.2
20260505064404 48 26 0.0 1.7 0.01 0.05 0.02 85 1008.6
20260505063903 48 9 0.9 1.7 0.01 0.05 0.02 84 1008.9
20260505063402 48 205 0.0 0.9 0.01 0.05 0.02 84 1008.7
20260505062903 48 309 0.0 1.7 0.01 0.05 0.02 84 1008.8
20260505062402 48 165 0.9 2.6 0.01 0.05 0.02 83 1008.7
20260505061901 48 93 0.9 2.6 0.01 0.05 0.02 83 1008.7
20260505061401 48 309 0.9 2.6 0.01 0.05 0.02 82 1009.2
20260505060903 48 282 1.7 2.6 0.01 0.05 0.02 82 1009.2
20260505055856 48 9 0.0 1.7 0.01 0.04 0.01 80 1008.9
20260505055356 48 291 0.9 2.6 0.01 0.04 0.01 80 1008.9
20260505054855 48 41 0.9 2.6 0.02 0.04 0.01 80 1008.9
20260505054355 48 22 1.7 2.6 0.03 0.04 0.01 79 1009.1
20260505053854 48 342 0.0 2.6 0.03 0.04 0.01 79 1009.2
20260505053355 48 275 0.9 2.6 0.04 0.04 0.01 78 1009.4
20260505052854 48 9 0.9 2.6 0.04 0.04 0.01 77 1009.0
20260505052353 49 221 0.9 2.6 0.04 0.04 0.01 77 1008.9
20260505051353 49 105 0.9 3.5 0.04 0.04 0.01 74 1008.5
20260505050352 49 9 1.7 3.5 0.03 0.03 0.00 72 1009.0
20260505041350 52 325 1.7 7.8 0.00 0.00 0.00 60 1009.4
20260505040350 53 346 4.3 9.6 0.00 0.00 0.00 56 1009.2
20260505035348 53 20 4.3 11.3 0.00 0.00 0.00 53 1009.0
20260505034849 54 334 5.2 11.3 0.00 0.00 0.00 52 1008.9
20260505033348 54 342 7.0 12.2 0.00 0.00 0.00 51 1008.6
20260505032348 55 338 5.2 13.0 0.00 0.00 0.00 50 1008.7
20260505031846 55 319 6.1 13.0 0.00 0.00 0.00 49 1008.7
20260505031346 55 26 5.2 11.3 0.00 0.00 0.00 46 1008.9
20260505030846 55 342 4.3 12.2 0.00 0.00 0.00 45 1008.8
20260505030346 56 34 6.1 13.9 0.00 0.00 0.00 44 1008.6
20260505025845 56 23 7.0 13.9 0.00 0.00 0.00 44 1008.1
20260505024845 56 40 6.1 13.9 0.00 0.00 0.00 46 1007.9
20260505024344 56 19 5.2 12.2 0.00 0.00 0.00 46 1008.3
20260505023843 56 24 5.2 13.9 0.00 0.00 0.00 46 1007.9
20260505023344 56 346 7.0 13.9 0.00 0.00 0.00 45 1007.9
20260505022843 56 11 7.8 13.9 0.00 0.00 0.00 45 1007.9
20260505021341 56 347 9.6 16.5 0.00 0.00 0.00 44 1007.7
20260505020841 57 22 8.7 18.2 0.00 0.00 0.00 43 1007.7
20260505020341 57 319 8.7 20.0 0.00 0.00 0.00 44 1007.4
20260505015840 57 348 10.4 22.6 0.00 0.00 0.00 44 1007.6
20260505015340 57 317 7.0 19.1 0.00 0.00 0.00 45 1007.4
20260505014841 58 306 8.7 17.4 0.00 0.00 0.00 45 1007.5
20260505014339 58 337 8.7 17.4 0.00 0.00 0.00 44 1007.4
20260505013839 58 15 8.7 15.6 0.00 0.00 0.00 45 1007.1
20260505013340 58 347 7.0 15.6 0.00 0.00 0.00 45 1006.9
20260505012838 59 351 8.7 13.9 0.00 0.00 0.00 43 1006.9
20260505012340 59 336 5.2 16.5 0.00 0.00 0.00 42 1006.9
20260505011838 60 11 7.8 16.5 0.00 0.00 0.00 42 1006.7
20260505011339 60 19 11.3 20.9 0.00 0.00 0.00 40 1006.7
20260505005835 61 350 9.6 20.0 0.00 0.00 0.00 40 1006.5
20260505004834 62 337 10.4 17.4 0.00 0.00 0.00 37 1006.2
20260505004335 63 29 9.6 21.7 0.00 0.00 0.00 37 1006.4
20260505003833 63 50 12.2 21.7 0.00 0.00 0.00 36 1006.3
20260505003333 64 288 7.8 14.8 0.00 0.00 0.00 37 1006.1
20260505002832 64 13 5.2 14.8 0.00 0.00 0.00 37 1005.6
20260505001832 65 347 7.8 13.9 0.00 0.00 0.00 35 1005.8
20260505001331 65 28 8.7 19.1 0.00 0.00 0.00 36 1005.6
20260505000330 67 18 8.7 16.5 0.00 0.00 0.00 36 1005.4
20260504235831 67 11 10.4 18.2 0.00 0.00 0.00 35 1005.3
20260504234831 68 26 7.8 16.5 0.00 0.00 0.00 36 1005.3
20260504234329 68 340 8.7 16.5 0.00 0.00 0.00 36 1005.2
20260504233829 68 331 7.8 14.8 0.00 0.00 0.00 35 1005.1
20260504233328 69 344 6.1 16.5 0.00 0.00 0.00 37 1005.1
20260504232828 69 34 7.0 16.5 0.00 0.00 0.00 34 1005.0
20260504232330 70 342 7.8 16.5 0.00 0.00 0.00 33 1004.9
20260504231827 71 11 7.8 17.4 0.00 0.00 0.00 33 1004.9
20260504231327 71 10 8.7 18.2 0.00 0.00 0.00 33 1004.7
20260504230828 72 334 10.4 20.0 0.00 0.00 0.00 31 1004.7
20260504225827 73 19 8.7 17.4 0.00 0.00 0.00 31 1004.5
20260504224827 73 350 10.4 19.1 0.00 0.00 0.00 33 1004.1
20260504223826 74 67 8.7 20.9 0.00 0.00 0.00 33 1003.9
20260504222825 74 350 10.4 20.9 0.00 0.00 0.00 31 1003.6
20260504222326 75 351 11.3 20.9 0.00 0.00 0.00 31 1003.5
20260504221825 75 350 11.3 20.9 0.00 0.00 0.00 31 1003.3
20260504221325 76 344 10.4 20.9 0.00 0.00 0.00 31 1003.4
20260504220824 76 316 11.3 20.0 0.00 0.00 0.00 31 1003.3
20260504220324 76 336 9.6 20.0 0.00 0.00 0.00 32 1003.2
20260504215823 76 339 11.3 20.0 0.00 0.00 0.00 30 1003.0
20260504214823 77 339 10.4 15.6 0.00 0.00 0.00 31 1003.0
20260504214323 77 342 7.8 14.8 0.00 0.00 0.00 33 1003.0
20260504213823 78 338 7.8 14.8 0.00 0.00 0.00 30 1003.0
20260504213322 78 327 7.8 14.8 0.00 0.00 0.00 33 1003.0
20260504212822 78 26 7.8 20.9 0.00 0.00 0.00 32 1003.0
20260504211821 79 336 5.2 14.8 0.00 0.00 0.00 34 1002.9
20260504211321 78 321 5.2 14.8 0.00 0.00 0.00 32 1002.7
20260504210821 79 321 8.7 14.8 0.00 0.00 0.00 34 1002.8
20260504205820 78 344 7.8 16.5 0.00 0.00 0.00 32 1002.6
20260504205320 79 347 7.8 14.8 0.00 0.00 0.00 33 1002.8
20260504204319 80 310 7.0 16.5 0.00 0.00 0.00 33 1002.5
20260504203819 80 11 6.1 16.5 0.00 0.00 0.00 34 1002.6
20260504203318 80 26 7.8 13.0 0.00 0.00 0.00 35 1002.5
20260504202818 80 23 5.2 12.2 0.00 0.00 0.00 39 1002.5
20260504202319 80 69 5.2 14.8 0.00 0.00 0.00 38 1002.4
20260504201818 80 11 5.2 14.8 0.00 0.00 0.00 38 1002.5
20260504200816 80 18 7.8 18.2 0.00 0.00 0.00 39 1002.3
20260504200316 80 9 7.0 17.4 0.00 0.00 0.00 38 1002.4
20260504195816 80 311 5.2 14.8 0.00 0.00 0.00 36 1002.4
20260504195316 80 11 7.0 18.2 0.00 0.00 0.00 38 1002.5
20260504194816 80 336 11.3 18.2 0.00 0.00 0.00 38 1002.4
20260504194315 81 342 6.1 15.6 0.00 0.00 0.00 38 1002.2
20260504193815 81 315 7.0 15.6 0.00 0.00 0.00 38 1002.2
20260504192814 81 24 7.8 14.8 0.00 0.00 0.00 38 1002.2
20260504192316 81 309 3.5 16.5 0.00 0.00 0.00 40 1002.1
20260504191314 81 279 7.0 18.2 0.00 0.00 0.00 35 1002.0
20260504190814 81 314 6.1 13.9 0.00 0.00 0.00 34 1002.0
20260504190313 81 317 4.3 16.5 0.00 0.00 0.00 36 1001.9
20260504185813 81 269 6.1 16.5 0.00 0.00 0.00 35 1001.8
20260504185313 81 319 5.2 11.3 0.00 0.00 0.00 35 1001.8
20260504184813 82 337 6.1 13.0 0.00 0.00 0.00 35 1001.8
20260504184312 82 284 7.0 17.4 0.00 0.00 0.00 36 1001.7
20260504183812 83 15 9.6 17.4 0.00 0.00 0.00 33 1001.7
20260504183312 83 314 3.5 13.0 0.00 0.00 0.00 31 1001.7
20260504182812 83 300 5.2 13.0 0.00 0.00 0.00 32 1001.6
20260504182313 83 342 7.0 12.2 0.00 0.00 0.00 32 1001.6
20260504181812 83 325 6.1 11.3 0.00 0.00 0.00 32 1001.6
20260504181312 83 351 4.3 13.9 0.00 0.00 0.00 34 1001.5
20260504180811 83 324 5.2 13.9 0.00 0.00 0.00 33 1001.6
20260504180311 83 32 5.2 15.6 0.00 0.00 0.00 31 1001.5
20260504175811 83 321 7.8 15.6 0.00 0.00 0.00 33 1001.6
20260504174310 83 22 4.3 12.2 0.00 0.00 0.00 32 1001.6
20260504173810 82 317 5.2 14.8 0.00 0.00 0.00 33 1001.6
20260504172809 82 300 4.3 13.0 0.00 0.00 0.00 35 1001.7
20260504172310 82 302 5.2 13.0 0.00 0.00 0.00 34 1001.7
20260504171809 82 309 4.3 11.3 0.00 0.00 0.00 34 1001.7